Zurück zum Katalog

FENGYUN 1C DEB

AktivLEO
NORAD 30413·DEBRIS·🇨🇳 China

Gestartet May 10, 1999 von Taiyuan Satellite Launch Center

Loading…

Nächste Überflüge (nächste 24 Stunden)

TLE

AktuellSource: Space-Track

Epoche: Sep 14, 2026, 10:34 UTC

1 30413U 99025AEC 26257.44031650  .00003374  00000-0  11880-2 0  9998
2 30413 102.0642 242.9746 0043193 216.1530 304.3690 14.35409618 10850

Verfolge FENGYUN 1C DEB in Echtzeit mit AllMySat

Download on the App Store